View from above orbital plane
|
View from above satellite
|
Ground track
|
The orbit data is extracted from the following two-line orbital elements,
1 19531U 88089A 21018.31312136 -.00000034 00000-0 31912-5 0 9993
2 19531 98.4057 31.5313 0010430 219.7830 140.2581 14.15266415667957
Epoch (UTC): | 18 January 2021 07:30:53 |
Eccentricity: | 0.0010430 |
inclination: | 98.4057° |
perigee height: | 834 km |
apogee height: | 849 km |
right ascension of ascending node: | 31.5313° |
argument of perigee: | 219.7830° |
revolutions per day: | 14.15266415 |
mean anomaly at epoch: | 140.2581° |
orbit number at epoch: | 66795 |
The dashed part of the orbit path shows where the satellite is in the earth's shadow,
|
|